[Iaude] MPEC N48: 2024 NQ [a=2.39,e=0.53,i=3.5,H=24.1]
    mpec at cfa.harvard.edu 
    mpec at cfa.harvard.edu
       
    Fri Jul  5 10:20:51 EDT 2024
    
    
  
M.P.E.C. 2024-N48                                  Issued 2024 July 5, 14:19 UT
     The Minor Planet Electronic Circulars contain information on unusual
         minor planets, routine data on comets and natural satellites,
         and occasional editorial announcements.  They are published
    on behalf of Division F of the International Astronomical Union by the
          Minor Planet Center, Smithsonian Astrophysical Observatory,
                          Cambridge, MA 02138, U.S.A.
			  
             Prepared using the Tamkin Foundation Computer Network
                              MPC at CFA.HARVARD.EDU
            URL https://www.minorplanetcenter.net/    ISSN 1523-6714
                                    2024 NQ                                     
Observations:
     K24N00Q* C2024 07 01.53302221 08 50.618+05 04 37.47         21.59wXEN048F51
     K24N00Q  C2024 07 01.54587621 08 54.492+05 04 33.96         21.79wXEN048F51
     K24N00Q  C2024 07 01.55877021 08 58.396+05 04 30.39         21.78wXEN048F51
     K24N00Q KC2024 07 02.29338921 12 57.60 +05 00 31.4          21.6 GVEN048H21
     K24N00Q KC2024 07 02.29627921 12 58.49 +05 00 30.4          21.4 GVEN048H21
     K24N00Q KC2024 07 02.29917021 12 59.37 +05 00 29.3          21.7 GVEN048H21
     K24N00Q KC2024 07 02.30206121 13 00.24 +05 00 28.3          21.5 GVEN048H21
     K24N00Q 3C2024 07 02.37911321 13 27.239+05 00 20.66         21.35GVEN048T14
     K24N00Q 3C2024 07 02.38008721 13 27.528+05 00 20.46         21.08GVEN048T14
     K24N00Q 3C2024 07 02.38106421 13 27.839+05 00 20.11         21.50GVEN048T14
     K24N00Q 3C2024 07 02.38204121 13 28.144+05 00 19.81         21.46GVEN048T14
     K24N00Q 3C2024 07 05.40274021 28 52.234+04 40 02.43         21.46GVEN048T14
     K24N00Q 3C2024 07 05.40371521 28 52.504+04 40 01.97         21.63GVEN048T14
     K24N00Q 3C2024 07 05.40469221 28 52.778+04 40 01.50         21.52GVEN048T14
Observer details:
F51 Pan-STARRS 1, Haleakala.  Observers J. Herman, T. Lowe, P. Minguez, A.
    Schultz, I. Smith.  Measurers K. Chambers, T. de Boer, J. Fairlamb, H.
    Gao, M. Huber, C.-C. Lin, E. Magnier, Y. Ramanjooloo, R. Wainscoat, R.
    Weryk.  1.8-m Ritchey-Chretien + CCD.
H21 Astronomical Research Observatory, Westfield.  Observer R. Holmes.
    Measurers T. Linder, R. Holmes, L. Horn.  1.3-m f/4.0 astrograph + CCD.
T14 Canada-France-Hawaii Telescope, Maunakea.  Observers R. Wainscoat, A.
    Acohido, T. Burdullis, H. Januszewski, H. Flewelling.  Measurers R. Weryk,
    R. Wainscoat.  3.6-m f/4.1 reflector + CCD.
Orbital elements:
2024 NQ                                                  Earth MOID = 0.1125 AU
Epoch 2024 Mar. 31.0 TT = JDT 2460400.5                 MPC                     
M 336.23888              (2000.0)            P               Q                  
n   0.26744911     Peri.  129.59740     +0.18150475     +0.98295167             
a   2.3858434      Node   150.82030     -0.91969549     +0.18024332             
e   0.5313130      Incl.    3.45245     -0.34816120     +0.03630915             
P   3.69           H   24.16          G   0.15           U   9                  
Residuals in seconds of arc
240701 F51  0.0   0.1-    240702 H21  0.1+  0.0     240702 T14  0.2+  0.0
240701 F51  0.1-  0.0     240702 H21  0.1+  0.1-    240705 T14  0.0   0.0
240701 F51  0.1+  0.1+    240702 T14  0.0   0.0     240705 T14  0.0   0.0
240702 H21  0.3-  0.3+    240702 T14  0.1-  0.1+    240705 T14  0.0   0.0
240702 H21  0.0   0.2+    240702 T14  0.1+  0.0
Ephemeris:
2024 NQ                  a,e,i = 2.39, 0.53, 3                   q = 1.1182
Date    TT    R. A. (2000) Decl.     Delta      r    Elong.  Phase     V
2024 06 05    18 27 52.3 +01 30 01   0.1585  1.1503   146.6    29.0    21.7
...
2024 06 20    19 58 57.9 +04 51 22   0.1364  1.1220   138.6    36.8    21.6
...
2024 06 28    20 48 46.3 +05 15 18   0.1369  1.1182   135.4    39.7    21.7
...
2024 07 04    21 21 50.1 +04 50 43   0.1421  1.1205   134.3    40.5    21.8
2024 07 05    21 26 50.6 +04 43 29   0.1433  1.1214   134.2    40.5    21.8
2024 07 06    21 31 42.0 +04 35 27   0.1445  1.1223   134.2    40.5    21.8
...
2024 07 12    21 57 31.1 +03 32 45   0.1539  1.1306   135.0    39.5    21.9
...
2024 07 20    22 23 20.7 +01 41 43   0.1703  1.1483   138.0    36.3    22.1
...
2024 08 04    22 49 35.6 -02 24 17   0.2111  1.1999   148.6    26.1    22.4
A. U. Tomatic                (C) Copyright 2024 MPC           M.P.E.C. 2024-N48
    
    
More information about the Iaude
mailing list